Starlink 5421

operational
NORAD ID: 54799 Int'l Des: 2022-175 Owner: SPXS Country: US Constellation: starlink
LEOCIRCULAR

About Starlink 5421

Description loading...

Live Position

Loading 3D Globe...

Upcoming Passes

Altitude History

Altitude vs Time

uPlot chart will show altitude changes over time

Two-Line Element Set

1 54799U 22175AT 25352.49883138 -.00000152 00000-0 85144-5 0 9998
2 54799 53.2187 23.5630 0001391 87.3117 272.8034 15.08843674168010
Epoch: Dec 18, 2025 • Age: 18 hours

Current Status

Altitude 541.1 km
Velocity 7.60 km/s
Sub-Earth Point 31.49°N, 125.29°W
Launch Date Dec 17, 2022
Age 3 years
Type internet

Technical Details

Classification Payload
Mass 305.00 kg
Dry Mass 290.00 kg
Total Mass 305.00 kg
Length 0.20 m
Diameter 2.80 m
Span 9.00 m
Shape Box + pan
Manufacturer SPXS
Bus Type Starlink
Phase Status In Orbit
Owner/State SPXS/US

Large Constellations

Loading constellations...